Time,TemperatureF,DewpointF,PressureIn,WindDirection,WindDirectionDegrees,WindSpeedMPH,WindSpeedGustMPH,Humidity,HourlyPrecipIn,Conditions,Clouds,dailyrainin,SoftwareType,DateUTC
2013-01-04 00:04:00,13.3,9.0,30.16,WSW,258,7.0,10.0,84,0.00,,,0.00,weatherlink.com 1.10,2013-01-04 06:04:00,
2013-01-04 00:19:00,13.3,9.0,30.15,SW,225,3.0,7.0,84,0.00,,,0.00,weatherlink.com 1.10,2013-01-04 06:19:00,
2013-01-04 00:34:00,13.6,10.0,30.15,SSW,213,6.0,8.0,85,0.00,,,0.00,weatherlink.com 1.10,2013-01-04 06:34:00,
2013-01-04 00:49:00,14.2,10.0,30.15,West,262,6.0,12.0,84,0.00,,,0.00,weatherlink.com 1.10,2013-01-04 06:49:00,
2013-01-04 01:04:00,14.1,10.0,30.14,WSW,249,6.0,11.0,83,0.00,,,0.00,weatherlink.com 1.10,2013-01-04 07:04:00,
2013-01-04 01:19:00,13.9,10.0,30.14,West,273,5.0,11.0,83,0.00,,,0.00,weatherlink.com 1.10,2013-01-04 07:19:00,
2013-01-04 01:34:00,13.9,10.0,30.14,WSW,248,5.0,14.0,84,0.00,,,0.00,weatherlink.com 1.10,2013-01-04 07:34:00,
2013-01-04 01:49:00,13.9,10.0,30.13,WSW,253,5.0,13.0,84,0.00,,,0.00,weatherlink.com 1.10,2013-01-04 07:49:00,
2013-01-04 02:04:00,14.0,10.0,30.13,West,275,3.0,13.0,84,0.00,,,0.00,weatherlink.com 1.10,2013-01-04 08:04:00,
2013-01-04 02:19:00,14.0,10.0,30.14,West,265,3.0,9.0,83,0.00,,,0.00,weatherlink.com 1.10,2013-01-04 08:19:00,
2013-01-04 02:34:00,14.2,10.0,30.14,WSW,248,5.0,9.0,83,0.00,,,0.00,weatherlink.com 1.10,2013-01-04 08:34:00,
2013-01-04 02:49:00,14.5,10.0,30.13,WSW,237,3.0,10.0,83,0.00,,,0.00,weatherlink.com 1.10,2013-01-04 08:49:00,
2013-01-04 03:04:00,14.3,10.0,30.13,SW,226,6.0,12.0,83,0.00,,,0.00,weatherlink.com 1.10,2013-01-04 09:04:00,
2013-01-04 03:20:00,14.1,10.0,30.13,West,281,4.0,11.0,83,0.00,,,0.00,weatherlink.com 1.10,2013-01-04 09:20:00,
2013-01-04 03:35:00,14.0,10.0,30.12,WSW,256,4.0,8.0,83,0.00,,,0.00,weatherlink.com 1.10,2013-01-04 09:35:00,
2013-01-04 03:50:00,14.2,10.0,30.11,West,259,2.0,9.0,83,0.00,,,0.00,weatherlink.com 1.10,2013-01-04 09:50:00,
2013-01-04 04:05:00,14.6,10.0,30.11,SW,217,3.0,9.0,83,0.00,,,0.00,weatherlink.com 1.10,2013-01-04 10:05:00,
2013-01-04 04:20:00,14.8,11.0,30.10,WSW,238,4.0,11.0,83,0.00,,,0.00,weatherlink.com 1.10,2013-01-04 10:20:00,
2013-01-04 04:35:00,14.8,10.0,30.09,WSW,250,5.0,10.0,82,0.00,,,0.00,weatherlink.com 1.10,2013-01-04 10:35:00,
2013-01-04 04:50:00,15.1,11.0,30.09,SW,225,5.0,12.0,82,0.00,,,0.00,weatherlink.com 1.10,2013-01-04 10:50:00,
2013-01-04 05:05:00,14.7,10.0,30.09,WSW,242,4.0,10.0,82,0.00,,,0.00,weatherlink.com 1.10,2013-01-04 11:05:00,
2013-01-04 05:20:00,15.1,11.0,30.09,West,261,4.0,10.0,82,0.00,,,0.00,weatherlink.com 1.10,2013-01-04 11:20:00,
2013-01-04 05:35:00,15.1,11.0,30.10,West,277,4.0,10.0,82,0.00,,,0.00,weatherlink.com 1.10,2013-01-04 11:35:00,
2013-01-04 05:50:00,15.1,11.0,30.09,WSW,250,8.0,13.0,82,0.00,,,0.00,weatherlink.com 1.10,2013-01-04 11:50:00,
2013-01-04 06:05:00,15.1,10.0,30.10,West,263,4.0,12.0,81,0.00,,,0.00,weatherlink.com 1.10,2013-01-04 12:05:00,
2013-01-04 06:20:00,14.7,10.0,30.09,WSW,238,6.0,12.0,82,0.00,,,0.00,weatherlink.com 1.10,2013-01-04 12:20:00,
2013-01-04 06:35:00,14.6,10.0,30.09,West,262,2.0,12.0,82,0.00,,,0.00,weatherlink.com 1.10,2013-01-04 12:35:00,
2013-01-04 06:50:00,14.5,10.0,30.09,West,261,2.0,13.0,82,0.00,,,0.00,weatherlink.com 1.10,2013-01-04 12:50:00,
2013-01-04 07:05:00,14.5,10.0,30.09,WSW,256,4.0,10.0,82,0.00,,,0.00,weatherlink.com 1.10,2013-01-04 13:05:00,
2013-01-04 07:20:00,14.9,10.0,30.09,WSW,250,6.0,11.0,81,0.00,,,0.00,weatherlink.com 1.10,2013-01-04 13:20:00,
2013-01-04 07:35:00,14.8,10.0,30.09,SW,227,6.0,10.0,81,0.00,,,0.00,weatherlink.com 1.10,2013-01-04 13:35:00,
2013-01-04 07:50:00,14.8,10.0,30.09,SW,223,2.0,9.0,81,0.00,,,0.00,weatherlink.com 1.10,2013-01-04 13:50:00,
2013-01-04 08:05:00,15.2,10.0,30.08,WSW,240,5.0,10.0,81,0.00,,,0.00,weatherlink.com 1.10,2013-01-04 14:05:00,
2013-01-04 08:20:00,16.0,11.0,30.08,WSW,240,6.0,13.0,81,0.00,,,0.00,weatherlink.com 1.10,2013-01-04 14:20:00,
2013-01-04 08:35:00,16.9,11.0,30.08,West,260,6.0,13.0,79,0.00,,,0.00,weatherlink.com 1.10,2013-01-04 14:35:00,
2013-01-04 08:50:00,17.4,12.0,30.08,WSW,244,4.0,14.0,79,0.00,,,0.00,weatherlink.com 1.10,2013-01-04 14:50:00,
2013-01-04 09:05:00,17.8,12.0,30.08,WSW,254,8.0,14.0,78,0.00,,,0.00,weatherlink.com 1.10,2013-01-04 15:05:00,
2013-01-04 09:20:00,18.2,12.0,30.09,West,266,9.0,13.0,77,0.00,,,0.00,weatherlink.com 1.10,2013-01-04 15:20:00,
2013-01-04 09:35:00,18.4,12.0,30.10,West,261,7.0,12.0,77,0.00,,,0.00,weatherlink.com 1.10,2013-01-04 15:35:00,
2013-01-04 09:50:00,18.8,12.0,30.10,WSW,248,2.0,13.0,76,0.00,,,0.00,weatherlink.com 1.10,2013-01-04 15:50:00,
2013-01-04 10:05:00,19.3,13.0,30.11,West,279,11.0,15.0,76,0.00,,,0.00,weatherlink.com 1.10,2013-01-04 16:05:00,
2013-01-04 10:20:00,19.8,13.0,30.12,WNW,283,12.0,16.0,76,0.00,,,0.00,weatherlink.com 1.10,2013-01-04 16:20:00,
2013-01-04 10:35:00,20.5,14.0,30.12,West,279,8.0,17.0,75,0.00,,,0.00,weatherlink.com 1.10,2013-01-04 16:35:00,
2013-01-04 10:50:00,21.3,14.0,30.12,West,271,7.0,12.0,74,0.00,,,0.00,weatherlink.com 1.10,2013-01-04 16:50:00,
2013-01-04 11:05:00,22.1,15.0,30.12,West,280,10.0,11.0,73,0.00,,,0.00,weatherlink.com 1.10,2013-01-04 17:05:00,
2013-01-04 11:20:00,22.3,15.0,30.11,West,276,7.0,13.0,72,0.00,,,0.00,weatherlink.com 1.10,2013-01-04 17:20:00,
2013-01-04 11:35:00,22.7,15.0,30.11,WNW,285,10.0,18.0,72,0.00,,,0.00,weatherlink.com 1.10,2013-01-04 17:35:00,
2013-01-04 11:50:00,23.3,16.0,30.11,WNW,288,4.0,10.0,72,0.00,,,0.00,weatherlink.com 1.10,2013-01-04 17:50:00,
2013-01-04 12:06:00,23.4,16.0,30.11,West,274,5.0,11.0,72,0.00,,,0.00,weatherlink.com 1.10,2013-01-04 18:06:00,
2013-01-04 12:21:00,24.1,16.0,30.10,West,269,6.0,11.0,72,0.00,,,0.00,weatherlink.com 1.10,2013-01-04 18:21:00,
2013-01-04 12:36:00,24.6,16.0,30.09,West,261,8.0,11.0,71,0.00,,,0.00,weatherlink.com 1.10,2013-01-04 18:36:00,
2013-01-04 12:51:00,25.2,17.0,30.09,West,268,4.0,10.0,71,0.00,,,0.00,weatherlink.com 1.10,2013-01-04 18:51:00,
2013-01-04 13:06:00,26.1,17.0,30.09,West,261,11.0,11.0,68,0.00,,,0.00,weatherlink.com 1.10,2013-01-04 19:06:00,
2013-01-04 13:21:00,25.6,16.0,30.08,WSW,244,4.0,15.0,68,0.00,,,0.00,weatherlink.com 1.10,2013-01-04 19:21:00,
2013-01-04 13:36:00,25.6,17.0,30.08,West,272,5.0,14.0,70,0.00,,,0.00,weatherlink.com 1.10,2013-01-04 19:36:00,
2013-01-04 13:51:00,26.1,18.0,30.08,WSW,254,6.0,11.0,70,0.00,,,0.00,weatherlink.com 1.10,2013-01-04 19:51:00,
2013-01-04 14:06:00,26.4,17.0,30.08,West,281,3.0,9.0,69,0.00,,,0.00,weatherlink.com 1.10,2013-01-04 20:06:00,
2013-01-04 14:21:00,26.5,18.0,30.08,West,276,3.0,9.0,70,0.00,,,0.00,weatherlink.com 1.10,2013-01-04 20:21:00,
2013-01-04 14:36:00,26.7,18.0,30.08,West,272,2.0,7.0,71,0.00,,,0.00,weatherlink.com 1.10,2013-01-04 20:36:00,
2013-01-04 14:51:00,26.9,19.0,30.09,West,267,4.0,6.0,71,0.00,,,0.00,weatherlink.com 1.10,2013-01-04 20:51:00,
2013-01-04 15:06:00,26.3,18.0,30.09,West,277,3.0,9.0,72,0.00,,,0.00,weatherlink.com 1.10,2013-01-04 21:06:00,
2013-01-04 15:21:00,25.9,18.0,30.09,West,273,1.0,9.0,73,0.00,,,0.00,weatherlink.com 1.10,2013-01-04 21:21:00,
2013-01-04 15:36:00,25.8,18.0,30.08,West,271,5.0,9.0,73,0.00,,,0.00,weatherlink.com 1.10,2013-01-04 21:36:00,
2013-01-04 15:51:00,26.2,18.0,30.09,West,270,3.0,7.0,72,0.00,,,0.00,weatherlink.com 1.10,2013-01-04 21:51:00,
2013-01-04 16:08:00,24.8,17.0,30.09,West,279,2.0,7.0,73,0.00,,,0.00,weatherlink.com 1.10,2013-01-04 22:08:00,
2013-01-04 16:21:00,24.2,17.0,30.09,West,277,0.0,8.0,75,0.00,,,0.00,weatherlink.com 1.10,2013-01-04 22:21:00,
2013-01-04 16:36:00,23.7,17.0,30.09,West,280,6.0,6.0,75,0.00,,,0.00,weatherlink.com 1.10,2013-01-04 22:36:00,
2013-01-04 16:51:00,22.9,16.0,30.09,West,279,2.0,4.0,76,0.00,,,0.00,weatherlink.com 1.10,2013-01-04 22:51:00,
2013-01-04 17:06:00,22.4,16.0,30.09,West,279,0.0,2.0,77,0.00,,,0.00,weatherlink.com 1.10,2013-01-04 23:06:00,
2013-01-04 17:21:00,22.0,16.0,30.09,West,279,0.0,3.0,77,0.00,,,0.00,weatherlink.com 1.10,2013-01-04 23:21:00,
2013-01-04 17:36:00,21.7,16.0,30.10,West,279,2.0,4.0,78,0.00,,,0.00,weatherlink.com 1.10,2013-01-04 23:36:00,
2013-01-04 17:51:00,21.2,15.0,30.09,West,279,0.0,2.0,78,0.00,,,0.00,weatherlink.com 1.10,2013-01-04 23:51:00,
2013-01-04 18:06:00,20.6,15.0,30.10,West,279,2.0,2.0,79,0.00,,,0.00,weatherlink.com 1.10,2013-01-05 00:06:00,
2013-01-04 18:21:00,20.4,15.0,30.11,West,279,0.0,2.0,80,0.00,,,0.00,weatherlink.com 1.10,2013-01-05 00:21:00,
2013-01-04 18:36:00,20.3,15.0,30.11,West,279,2.0,6.0,81,0.00,,,0.00,weatherlink.com 1.10,2013-01-05 00:36:00,
2013-01-04 18:51:00,19.9,15.0,30.11,West,279,2.0,3.0,80,0.00,,,0.00,weatherlink.com 1.10,2013-01-05 00:51:00,
2013-01-04 19:21:00,19.7,15.0,30.11,West,279,0.0,4.0,80,0.00,,,0.00,weatherlink.com 1.10,2013-01-05 01:21:00,
2013-01-04 19:36:00,18.8,14.0,30.11,West,279,1.0,2.0,80,0.00,,,0.00,weatherlink.com 1.10,2013-01-05 01:36:00,
2013-01-04 19:51:00,18.8,14.0,30.11,West,279,0.0,3.0,80,0.00,,,0.00,weatherlink.com 1.10,2013-01-05 01:51:00,
2013-01-04 20:06:00,18.5,16.0,30.10,West,279,2.0,3.0,89,0.00,,,0.00,weatherlink.com 1.10,2013-01-05 02:06:00,
2013-01-04 20:21:00,18.8,14.0,30.10,West,279,1.0,5.0,81,0.00,,,0.00,weatherlink.com 1.10,2013-01-05 02:21:00,
2013-01-04 20:36:00,18.4,14.0,30.09,West,279,0.0,1.0,81,0.00,,,0.00,weatherlink.com 1.10,2013-01-05 02:36:00,
2013-01-04 20:51:00,18.1,14.0,30.09,West,279,3.0,3.0,82,0.00,,,0.00,weatherlink.com 1.10,2013-01-05 02:51:00,
2013-01-04 21:06:00,19.0,14.0,30.09,West,279,3.0,5.0,82,0.00,,,0.00,weatherlink.com 1.10,2013-01-05 03:06:00,
2013-01-04 21:21:00,18.5,14.0,30.08,West,279,2.0,4.0,82,0.00,,,0.00,weatherlink.com 1.10,2013-01-05 03:21:00,
2013-01-04 21:36:00,17.8,13.0,30.07,West,279,0.0,1.0,82,0.00,,,0.00,weatherlink.com 1.10,2013-01-05 03:36:00,
2013-01-04 21:51:00,16.8,12.0,30.07,West,279,0.0,0.0,82,0.00,,,0.00,weatherlink.com 1.10,2013-01-05 03:51:00,
2013-01-04 22:06:00,15.7,11.0,30.07,West,279,0.0,0.0,82,0.00,,,0.00,weatherlink.com 1.10,2013-01-05 04:06:00,
2013-01-04 22:21:00,14.5,10.0,30.07,West,279,0.0,2.0,83,0.00,,,0.00,weatherlink.com 1.10,2013-01-05 04:21:00,
2013-01-04 22:36:00,13.9,10.0,30.07,West,279,0.0,1.0,84,0.00,,,0.00,weatherlink.com 1.10,2013-01-05 04:36:00,
2013-01-04 22:51:00,12.8,9.0,30.08,West,279,0.0,1.0,84,0.00,,,0.00,weatherlink.com 1.10,2013-01-05 04:51:00,
2013-01-04 23:21:00,15.4,12.0,30.09,West,278,2.0,4.0,86,0.00,,,0.00,weatherlink.com 1.10,2013-01-05 05:21:00,
2013-01-04 23:36:00,17.1,13.0,30.08,West,277,1.0,5.0,85,0.00,,,0.00,weatherlink.com 1.10,2013-01-05 05:36:00,
2013-01-04 23:51:00,17.0,13.0,30.08,West,263,2.0,6.0,83,0.00,,,0.00,weatherlink.com 1.10,2013-01-05 05:51:00,